TimeEDT,TemperatureF,Dew PointF,Humidity,Sea Level PressureIn,VisibilityMPH,Wind Direction,Wind SpeedMPH,Gust SpeedMPH,PrecipitationIn,Events,Conditions,WindDirDegrees,DateUTC
12:51 AM,30.9,28.9,92,30.16,10.0,Calm,Calm,-,N/A,,Clear,0,2013-10-21 04:51:00
1:51 AM,30.9,28.9,92,30.14,10.0,Calm,Calm,-,N/A,,Clear,0,2013-10-21 05:51:00
2:51 AM,30.9,28.0,89,30.15,10.0,Calm,Calm,-,N/A,,Clear,0,2013-10-21 06:51:00
3:51 AM,30.0,27.0,88,30.15,10.0,Calm,Calm,-,N/A,,Clear,0,2013-10-21 07:51:00
4:09 AM,30.2,26.6,86,30.11,10.0,Calm,Calm,-,N/A,,Partly Cloudy,0,2013-10-21 08:09:00
4:41 AM,30.2,26.6,86,30.11,1.8,Calm,Calm,-,N/A,,Mostly Cloudy,0,2013-10-21 08:41:00
4:48 AM,28.4,26.6,93,30.11,3.0,Calm,Calm,-,N/A,,Mostly Cloudy,0,2013-10-21 08:48:00
4:51 AM,28.9,27.0,92,30.15,4.0,Calm,Calm,-,N/A,,Mostly Cloudy,0,2013-10-21 08:51:00
4:59 AM,28.4,26.6,93,30.11,9.0,Calm,Calm,-,N/A,,Scattered Clouds,0,2013-10-21 08:59:00
5:35 AM,28.4,26.6,93,30.11,1.8,Calm,Calm,-,N/A,,Partly Cloudy,0,2013-10-21 09:35:00
5:46 AM,28.4,26.6,93,30.11,1.2,Calm,Calm,-,N/A,,Mostly Cloudy,0,2013-10-21 09:46:00
5:51 AM,28.0,26.1,92,30.16,1.5,Calm,Calm,-,N/A,,Mostly Cloudy,0,2013-10-21 09:51:00
5:58 AM,28.4,26.6,93,30.11,3.0,Calm,Calm,-,N/A,,Mostly Cloudy,0,2013-10-21 09:58:00
6:06 AM,28.4,26.6,93,30.11,10.0,Calm,Calm,-,N/A,,Scattered Clouds,0,2013-10-21 10:06:00
6:44 AM,28.4,26.6,93,30.12,2.5,Calm,Calm,-,N/A,,Mostly Cloudy,0,2013-10-21 10:44:00
6:51 AM,28.0,26.1,92,30.17,1.5,Calm,Calm,-,N/A,,Mostly Cloudy,0,2013-10-21 10:51:00
7:01 AM,28.4,26.6,93,30.12,2.0,Calm,Calm,-,N/A,,Mostly Cloudy,0,2013-10-21 11:01:00
7:08 AM,28.4,26.6,93,30.12,1.0,Calm,Calm,-,N/A,,Mist,0,2013-10-21 11:08:00
7:22 AM,26.6,24.8,93,30.12,2.0,Calm,Calm,-,N/A,,Scattered Clouds,0,2013-10-21 11:22:00
7:31 AM,28.4,24.8,86,30.12,10.0,Calm,Calm,-,N/A,,Partly Cloudy,0,2013-10-21 11:31:00
7:44 AM,28.4,24.8,86,30.12,2.5,Calm,Calm,-,N/A,,Scattered Clouds,0,2013-10-21 11:44:00
7:46 AM,28.4,24.8,86,30.12,3.0,Calm,Calm,-,N/A,,Mostly Cloudy,0,2013-10-21 11:46:00
7:51 AM,28.0,26.1,92,30.18,2.0,Calm,Calm,-,N/A,,Mostly Cloudy,0,2013-10-21 11:51:00
7:58 AM,28.4,26.6,93,30.12,1.5,Calm,Calm,-,N/A,,Mostly Cloudy,0,2013-10-21 11:58:00
8:08 AM,28.4,26.6,93,30.12,2.0,Calm,Calm,-,N/A,,Scattered Clouds,0,2013-10-21 12:08:00
8:17 AM,28.4,26.6,93,30.12,7.0,Calm,Calm,-,N/A,,Partly Cloudy,0,2013-10-21 12:17:00
8:51 AM,33.1,30.0,89,30.19,10.0,Calm,Calm,-,N/A,,Clear,0,2013-10-21 12:51:00
9:51 AM,37.9,34.0,86,30.19,10.0,Calm,Calm,-,N/A,,Clear,0,2013-10-21 13:51:00
10:51 AM,48.0,37.9,68,30.15,10.0,Calm,Calm,-,N/A,,Clear,0,2013-10-21 14:51:00
11:51 AM,59.0,39.0,48,30.10,10.0,Calm,Calm,-,N/A,,Clear,0,2013-10-21 15:51:00
12:51 PM,63.0,36.0,37,30.08,10.0,SSW,5.8,-,N/A,,Clear,200,2013-10-21 16:51:00
1:51 PM,66.0,33.1,29,30.04,10.0,Variable,4.6,-,N/A,,Clear,0,2013-10-21 17:51:00
2:51 PM,66.9,30.9,26,30.01,10.0,West,5.8,-,N/A,,Clear,280,2013-10-21 18:51:00
3:51 PM,66.9,33.1,28,29.99,10.0,West,5.8,-,N/A,,Clear,270,2013-10-21 19:51:00
4:51 PM,66.9,33.1,28,29.99,10.0,WNW,4.6,-,N/A,,Clear,290,2013-10-21 20:51:00
5:51 PM,64.0,33.1,31,29.99,10.0,WNW,5.8,-,N/A,,Clear,300,2013-10-21 21:51:00
6:51 PM,52.0,35.1,53,30.03,10.0,Calm,Calm,-,N/A,,Clear,0,2013-10-21 22:51:00
7:51 PM,46.0,35.1,66,30.04,10.0,Calm,Calm,-,N/A,,Clear,0,2013-10-21 23:51:00
8:51 PM,42.1,35.1,76,30.03,10.0,Calm,Calm,-,N/A,,Clear,0,2013-10-22 00:51:00
9:51 PM,41.0,36.0,82,30.02,10.0,Calm,Calm,-,N/A,,Clear,0,2013-10-22 01:51:00
10:51 PM,37.9,36.0,93,30.01,10.0,Calm,Calm,-,N/A,,Clear,0,2013-10-22 02:51:00
11:51 PM,42.1,37.0,82,29.97,10.0,Calm,Calm,-,N/A,,Mostly Cloudy,0,2013-10-22 03:51:00